Regional Weather Roundup
Issued by NWS Sterling, VA

Home | Current Version | Previous Version | Graphics & Text | Print | Product List | Glossary On
Versions: 1 2 3 4 5 6 7 8 9 10 11 12 13 14 15 16 17 18 19 20 21 22 23 24 25 26 27 28 29 30 31 32 33 34 35 36 37 38 39 40 41 42 43 44 45 46 47 48 49 50
000
ASUS41 KLWX 222210
RWRLWX

REGIONAL WEATHER ROUNDUP
NATIONAL WEATHER SERVICE BALTIMORE MD/WASHINGTON DC
600 PM EDT FRI AUG 22 2014

Note: "FAIR" indicates few or no clouds below 12,000 feet
with no significant weather and/or obstructions to visibility.
 TC=TEMPERATURE CELSIUS

 * =Non NWS site. Station does not report precipitation (e.g. rain,
    snow, etc.), thunder, or fog.

DCZ001-MDZ009-015-VAZ040>042-051-053>054-222300-
WASHINGTON METRO
  /KDAA//-FT BELVOIR

CITY           SKY/WX    TMP DP  RH WIND       PRES   REMARKS
WASHINGTON NAT PTSUNNY   82  70  66 E3        29.96S
DULLES         PTSUNNY   79  67  66 CALM      29.96S
ANDREWS AFB    PTSUNNY   78  70  76 E5        29.96S
QUANTICO       SUNNY     80  71  74 S6        29.97R
COLLEGE PARK*  CLOUDY    79  72  78 CALM      29.96R
LEESBURG*      CLOUDY    81  72  74 CALM      29.97S
GAITHERSBURG*  CLOUDY    73  72  94 CALM      30.01S

$$

MDZ006>007-011-014-222300-
BALTIMORE METRO

CITY           SKY/WX    TMP DP  RH WIND       PRES   REMARKS
BWI AIRPORT    CLOUDY    77  66  68 NE8       29.97R
MD SCIENCE CTR   N/A     79  68  69 MISG      29.97S
MARTIN STATE   PTSUNNY   79  70  73 CALM      29.99R
ANNAPOLIS      CLOUDY    79  69  71 NE7       29.96R
FORT MEADE*    CLOUDY    77  68  73 NE3       29.99R

$$

MDZ012-015-019>023-222300-
MARYLAND EASTERN SHORE

CITY           SKY/WX    TMP DP  RH WIND       PRES   REMARKS
OCEAN CITY     CLOUDY    75  70  84 E10       29.96S
SALISBURY      LGT RAIN  76  70  82 SE6       29.96S
BAY BRIDGE AP*   N/A     77  68  73 E5        29.97R
CAMBRIDGE*     PTSUNNY   72  68  88 CALM      29.97R
EASTON*        PTSUNNY   77  72  83 CALM      30.00R

$$

MDZ017>025-222300-
SOUTHERN MARYLAND

CITY           SKY/WX    TMP DP  RH WIND       PRES   REMARKS
PATUXENT RIVER PTSUNNY   79  70  74 N12       29.95S
ST INIGOES     PTSUNNY   78  69  73 NE6       29.95S
LEONARDTOWN*   PTSUNNY   77  68  73 CALM      29.98R

$$

MDZ003>005-222300-
NORTH CENTRAL MARYLAND

CITY           SKY/WX    TMP DP  RH WIND       PRES   REMARKS
FREDERICK*     PTSUNNY   79  73  83 NE3       29.99S
HAGERSTOWN APT PTSUNNY   78  68  71 S6        29.97S
WESTMINSTER*   MOSUNNY   79  72  78 CALM      29.99R

$$

MDZ501>502-222300-
WESTERN MARYLAND

CITY           SKY/WX    TMP DP  RH WIND       PRES   REMARKS
OAKLAND*       PTSUNNY   68 N/A N/A SW5       30.06F FOG
CUMBERLAND*    PTSUNNY   81  70  69 CALM      30.00S

$$

VAZ025>031-222300-
SHENANDOAH VALLEY

CITY           SKY/WX    TMP DP  RH WIND       PRES   REMARKS
WINCHESTER*    CLOUDY    81  68  65 SE3       29.97F
STAUNTON*      PTSUNNY   79  69  72 S6        30.00S

$$

WVZ021-048>050-054>055-222300-
EASTERN WEST VIRGINIA PANHANDLE

CITY           SKY/WX    TMP DP  RH WIND       PRES   REMARKS
MARTINSBURG    CLOUDY    80  67  64 CALM      29.97S
PETERSBURG*    NOT AVBL

$$

VAZ036>039-050-222300-
CENTRAL FOOTHILLS

CITY           SKY/WX    TMP DP  RH WIND       PRES   REMARKS
CHARLOTTESVILL PTSUNNY   79  70  74 NE5       29.97S
ORANGE*        CLOUDY    79  70  73 W5        29.98S

$$

VAZ055>057-222300-
NORTH AND CENTRAL PIEDMONT

CITY           SKY/WX    TMP DP  RH WIND       PRES   REMARKS
FREDERICKSBRG* MOSUNNY   82  70  68 N3        29.95S
STAFFORD*      MOSUNNY   80  71  74 CALM      30.00S

$$

NCZ024-NYZ072-PAZ021-071-VAZ022-071-222300-
OTHER REGIONAL OBSERVATIONS

CITY           SKY/WX    TMP DP  RH WIND       PRES   REMARKS
NEW YORK CITY  CLOUDY    69  59  70 VRB3      30.06R
PHILADELPHIA   CLOUDY    76  65  68 E9        29.99R
PITTSBURGH     PTSUNNY   81  68  64 SW3       29.95S
ROANOKE        CLOUDY    79  72  79 SE5       30.01F
RICHMOND       PTSUNNY   85  69  58 N3        29.94F
RALEIGH        PTSUNNY   83  73  72 SW3       29.97F

$$

ANZ530>537-222300-
MARINE OBSERVATIONS

STATION/POSITION TIME  TEMP    WIND        PRES
                       AIR SEA DIR/SP/G
                 (UTC) (F)     (DEG/KT/KT) (MB)
THOMAS PT LIGHT  2200   77 79   30/  8/  9 1015.1R
BALT KEY BRIDGE  2200   77      60/  6/  8 1014.4R
COVE POINT       2200   77      30/ 10/ 11 1014.3R
LEWISETTA        2200   78 81  350/  6/  7 1014.0R
SOLOMONS ISLAND  2200      80                N/A
PINEY POINT      2200          350/  4/  5   N/A

$$



USA.gov is the U.S. government's official web portal to all federal, state and local government web resources and services.